Sharm El Sheikh, Egypt

9:24 AM EET on December 14, 2017 (GMT +0200)
Sharm El Sheikh

Weather History for HESH - March, 2013

Change the Weather History Date:

Thursday, March 28, 2013

  Actual Average Record
Temperature  
Mean Temperature 78 °F -  
Max Temperature 87 °F 85 °F - ()
Min Temperature 68 °F 68 °F - ()
Cooling Degree Days 12    
Growing Degree Days 28 (Base 50)    
Moisture  
Dew Point 38 °F    
Average Humidity 26    
Maximum Humidity 46    
Minimum Humidity 13    
Precipitation  
Precipitation 0.00 in 0.00 in - ()
Sea Level Pressure  
Sea Level Pressure 29.90 in    
Wind  
Wind Speed 11 mph ()    
Max Wind Speed 21 mph    
Max Gust Speed -    
T = Trace of Precipitation, MM = Missing Value Source: Averaged Metar Reports

Daily Weather History Graph

Daily Weather History Graph

Search for Another Location

Airport or City:

Trip Planner

Search our weather history database for the weather conditions in past years. The results will help you decide how hot, cold, wet, or windy it might be!

Date:

Astronomy

Mar. 28, 2013 Rise Set
Actual Time 5:37 AM EET 5:58 PM EET
Civil Twilight 5:13 AM EET 6:21 PM EET
Nautical Twilight 4:46 AM EET 6:49 PM EET
Astronomical Twilight 4:18 AM EET 7:16 PM EET
Moon 7:15 PM EET (3/28) 6:00 AM EET (3/28)
Length of Visible Light 13h 07m
Length of Day
12h 20m
Full, 99% of the Moon is Illuminated
Mar 28
Full
Apr 3
Last Quarter
Apr 10
New
Apr 18
First Quarter
Apr 25
Full

Hourly Weather History & Observations

Time (EET) Temp. Dew Point Humidity Pressure Visibility Wind Dir Wind Speed Gust Speed Precip Events Conditions
12:00 AM 73.4 °F 35.6 °F 25% 29.89 in - North 15.0 mph - N/A   Clear
1:00 AM 73.4 °F 33.8 °F 23% 29.89 in - North 20.7 mph - N/A   Clear
2:00 AM 69.8 °F 44.6 °F 40% 29.89 in - North 16.1 mph - N/A   Clear
3:00 AM 68.0 °F 46.4 °F 46% 29.89 in - North 13.8 mph - N/A   Clear
4:00 AM 68.0 °F 42.8 °F 40% 29.89 in - North 12.7 mph - N/A   Clear
5:00 AM 68.0 °F 41.0 °F 37% 29.89 in - North 13.8 mph - N/A   Clear
6:00 AM 68.0 °F 35.6 °F 30% 29.92 in - North 15.0 mph - N/A   Clear
7:00 AM 71.6 °F 35.6 °F 27% 29.92 in - North 13.8 mph - N/A   Clear
8:00 AM 75.2 °F 35.6 °F 24% 29.95 in - NNE 18.4 mph - N/A   Clear
9:00 AM 77.0 °F 39.2 °F 26% 29.95 in - NNE 17.3 mph - N/A   Clear
10:00 AM 78.8 °F 42.8 °F 28% 29.95 in - NNE 13.8 mph - N/A   Clear
11:00 AM 80.6 °F 44.6 °F 28% 29.95 in - NNE 11.5 mph - N/A   Clear
12:00 PM 84.2 °F 41.0 °F 22% 29.92 in - NNE 11.5 mph - N/A   Clear
12:33 PM 84.2 °F 41.0 °F 22% 29.92 in - NNE 11.5 mph - N/A   Clear
1:00 PM 86.0 °F 37.4 °F 18% 29.92 in - NNE 10.4 mph - N/A   Clear
2:00 PM 87.8 °F 37.4 °F 17% 29.86 in - NNE 10.4 mph - N/A   Clear
3:00 PM 87.8 °F 32.0 °F 14% 29.86 in - NNE 10.4 mph - N/A   Clear
4:00 PM 87.8 °F 30.2 °F 13% 29.86 in - NNE 8.1 mph - N/A   Clear
5:00 PM 84.2 °F 41.0 °F 22% 29.86 in - South 5.8 mph - N/A   Clear
6:00 PM 78.8 °F 39.2 °F 24% 29.86 in - Calm Calm - N/A   Clear
7:00 PM 75.2 °F 35.6 °F 24% 29.86 in - Variable 2.3 mph - N/A   Clear
8:00 PM 75.2 °F 26.6 °F 17% 29.89 in - North 8.1 mph - N/A   Clear
9:00 PM 73.4 °F 35.6 °F 25% 29.89 in - North 3.5 mph - N/A   Clear
10:00 PM 71.6 °F 41.0 °F 33% 29.89 in - North 5.8 mph - N/A   Clear
11:00 PM 75.2 °F 46.4 °F 36% 29.89 in - North 13.8 mph - N/A   Clear